TimeCDT,TemperatureF,Dew PointF,Humidity,Sea Level PressureIn,VisibilityMPH,Wind Direction,Wind SpeedMPH,Gust SpeedMPH,PrecipitationIn,Events,Conditions,WindDirDegrees,DateUTC
12:15 AM,39.2,28.4,65,30.03,10.0,SSE,18.4,-,N/A,,Clear,150,2011-11-05 05:15:00
12:35 AM,39.2,28.4,65,30.03,10.0,SSE,19.6,25.3,N/A,,Clear,150,2011-11-05 05:35:00
12:55 AM,39.2,28.4,65,30.03,10.0,SSE,17.3,-,N/A,,Clear,150,2011-11-05 05:55:00
1:15 AM,39.2,28.4,65,30.03,10.0,SSE,16.1,20.7,N/A,,Clear,150,2011-11-05 06:15:00
1:35 AM,39.2,28.4,65,30.03,10.0,SSE,17.3,-,N/A,,Clear,160,2011-11-05 06:35:00
1:55 AM,39.2,28.4,65,30.02,10.0,SSE,15.0,-,N/A,,Clear,150,2011-11-05 06:55:00
2:35 AM,39.2,28.4,65,30.01,10.0,SSE,18.4,-,N/A,,Clear,150,2011-11-05 07:35:00
2:55 AM,39.2,28.4,65,30.01,10.0,SSE,18.4,23.0,N/A,,Clear,150,2011-11-05 07:55:00
3:15 AM,39.2,28.4,65,30.00,10.0,SSE,16.1,24.2,N/A,,Clear,150,2011-11-05 08:15:00
3:35 AM,39.2,28.4,65,29.99,10.0,SSE,18.4,25.3,N/A,,Clear,150,2011-11-05 08:35:00
3:55 AM,39.2,30.2,70,29.98,10.0,SSE,20.7,26.5,N/A,,Clear,150,2011-11-05 08:55:00
4:35 AM,37.4,30.2,75,29.97,10.0,SSE,16.1,-,N/A,,Clear,150,2011-11-05 09:35:00
4:55 AM,37.4,30.2,75,29.97,10.0,SSE,18.4,-,N/A,,Clear,150,2011-11-05 09:55:00
5:15 AM,37.4,30.2,75,29.97,10.0,SSE,17.3,23.0,N/A,,Clear,150,2011-11-05 10:15:00
5:35 AM,37.4,30.2,75,29.96,10.0,SSE,17.3,23.0,N/A,,Clear,150,2011-11-05 10:35:00
5:55 AM,37.4,32.0,81,29.96,10.0,SSE,18.4,25.3,N/A,,Clear,150,2011-11-05 10:55:00
6:15 AM,37.4,32.0,81,29.95,10.0,SSE,20.7,26.5,N/A,,Clear,150,2011-11-05 11:15:00
6:35 AM,37.4,32.0,81,29.95,10.0,SSE,18.4,-,N/A,,Clear,150,2011-11-05 11:35:00
7:15 AM,39.2,33.8,81,29.93,10.0,SSE,21.9,-,N/A,,Clear,150,2011-11-05 12:15:00
7:35 AM,39.2,33.8,81,29.93,10.0,SSE,23.0,27.6,N/A,,Clear,150,2011-11-05 12:35:00
7:55 AM,39.2,33.8,81,29.92,7.0,SSE,23.0,28.8,N/A,,Clear,150,2011-11-05 12:55:00
8:15 AM,39.2,33.8,81,29.92,7.0,SSE,19.6,29.9,N/A,,Clear,150,2011-11-05 13:15:00
8:35 AM,39.2,35.6,87,29.92,5.0,SSE,20.7,24.2,N/A,,Haze,160,2011-11-05 13:35:00
8:55 AM,39.2,35.6,87,29.91,7.0,SSE,21.9,-,N/A,,Clear,160,2011-11-05 13:55:00
9:35 AM,42.8,37.4,81,29.90,7.0,SSE,17.3,27.6,N/A,,Clear,160,2011-11-05 14:35:00
9:55 AM,44.6,37.4,76,29.89,7.0,SSE,20.7,28.8,N/A,,Clear,160,2011-11-05 14:55:00
10:15 AM,46.4,37.4,71,29.89,7.0,SSE,25.3,29.9,N/A,,Clear,160,2011-11-05 15:15:00
10:35 AM,46.4,37.4,71,29.88,10.0,SSE,25.3,31.1,N/A,,Clear,160,2011-11-05 15:35:00
10:55 AM,46.4,37.4,71,29.88,10.0,SSE,19.6,26.5,N/A,,Clear,160,2011-11-05 15:55:00
11:15 AM,46.4,37.4,71,29.88,10.0,SSE,24.2,28.8,N/A,,Clear,160,2011-11-05 16:15:00
11:35 AM,50.0,37.4,62,29.87,10.0,South,21.9,27.6,N/A,,Clear,170,2011-11-05 16:35:00
11:55 AM,51.8,37.4,58,29.86,10.0,SSE,18.4,26.5,N/A,,Clear,160,2011-11-05 16:55:00
12:15 PM,53.6,37.4,54,29.84,10.0,South,21.9,32.2,N/A,,Clear,170,2011-11-05 17:15:00
12:55 PM,53.6,35.6,51,29.83,10.0,South,32.2,40.3,N/A,,Clear,170,2011-11-05 17:55:00
1:15 PM,55.4,35.6,47,29.82,10.0,South,32.2,40.3,N/A,,Clear,170,2011-11-05 18:15:00
1:35 PM,57.2,37.4,48,29.81,10.0,South,27.6,35.7,N/A,,Clear,170,2011-11-05 18:35:00
1:55 PM,55.4,37.4,51,29.80,10.0,South,29.9,36.8,N/A,,Clear,170,2011-11-05 18:55:00
2:15 PM,57.2,37.4,48,29.80,10.0,South,31.1,34.5,N/A,,Clear,170,2011-11-05 19:15:00
2:35 PM,55.4,37.4,51,29.80,10.0,South,28.8,35.7,N/A,,Clear,170,2011-11-05 19:35:00
2:55 PM,55.4,37.4,51,29.79,10.0,South,26.5,36.8,N/A,,Clear,170,2011-11-05 19:55:00
3:15 PM,55.4,37.4,51,29.78,10.0,SSE,23.0,32.2,N/A,,Clear,160,2011-11-05 20:15:00
3:35 PM,55.4,37.4,51,29.77,10.0,SSE,25.3,35.7,N/A,,Clear,160,2011-11-05 20:35:00
4:15 PM,55.4,37.4,51,29.77,10.0,SSE,21.9,31.1,N/A,,Clear,160,2011-11-05 21:15:00
4:35 PM,53.6,37.4,54,29.76,10.0,SSE,25.3,32.2,N/A,,Clear,150,2011-11-05 21:35:00
4:55 PM,53.6,39.2,58,29.76,10.0,SSE,26.5,34.5,N/A,,Clear,160,2011-11-05 21:55:00
5:15 PM,51.8,39.2,62,29.75,10.0,SSE,21.9,33.4,N/A,,Clear,150,2011-11-05 22:15:00
5:35 PM,51.8,37.4,58,29.75,10.0,SSE,24.2,34.5,N/A,,Clear,150,2011-11-05 22:35:00
5:55 PM,50.0,39.2,66,29.75,10.0,SE,20.7,31.1,N/A,,Clear,140,2011-11-05 22:55:00
6:15 PM,48.2,39.2,71,29.74,10.0,SSE,23.0,32.2,N/A,,Clear,150,2011-11-05 23:15:00
6:35 PM,48.2,39.2,71,29.74,10.0,SE,24.2,29.9,N/A,,Clear,140,2011-11-05 23:35:00
6:55 PM,48.2,39.2,71,29.74,10.0,SSE,23.0,28.8,N/A,,Clear,150,2011-11-05 23:55:00
7:15 PM,46.4,39.2,76,29.73,7.0,SE,25.3,28.8,N/A,,Clear,140,2011-11-06 00:15:00
7:35 PM,46.4,39.2,76,29.72,7.0,SE,26.5,36.8,N/A,,Clear,140,2011-11-06 00:35:00
7:55 PM,46.4,39.2,76,29.72,7.0,SE,29.9,39.1,N/A,,Clear,140,2011-11-06 00:55:00
8:15 PM,46.4,39.2,76,29.71,7.0,SE,27.6,36.8,N/A,,Scattered Clouds,140,2011-11-06 01:15:00
8:35 PM,46.4,39.2,76,29.71,10.0,SE,27.6,36.8,N/A,,Scattered Clouds,140,2011-11-06 01:35:00
8:55 PM,46.4,39.2,76,29.70,10.0,SE,27.6,38.0,N/A,,Mostly Cloudy,140,2011-11-06 01:55:00
9:15 PM,46.4,39.2,76,29.69,10.0,SE,31.1,40.3,N/A,,Scattered Clouds,140,2011-11-06 02:15:00
9:35 PM,46.4,39.2,76,29.70,10.0,SSE,27.6,35.7,N/A,,Clear,150,2011-11-06 02:35:00
9:55 PM,46.4,39.2,76,29.72,10.0,SSE,23.0,33.4,N/A,,Clear,160,2011-11-06 02:55:00
10:15 PM,46.4,39.2,76,29.71,10.0,SSE,28.8,33.4,N/A,,Clear,150,2011-11-06 03:15:00
10:35 PM,46.4,39.2,76,29.71,10.0,SSE,20.7,31.1,N/A,,Clear,160,2011-11-06 03:35:00
10:55 PM,46.4,39.2,76,29.71,10.0,SSE,20.7,-,N/A,,Clear,160,2011-11-06 03:55:00
11:15 PM,46.4,39.2,76,29.71,7.0,SSE,20.7,31.1,N/A,,Clear,150,2011-11-06 04:15:00
11:35 PM,46.4,39.2,76,29.70,7.0,SSE,21.9,26.5,N/A,,Clear,150,2011-11-06 04:35:00
11:55 PM,46.4,39.2,76,29.69,7.0,SSE,20.7,28.8,N/A,,Clear,150,2011-11-06 04:55:00